Weather WX

World > North America > United States > Pennsylvania

Chester, Pennsylvania Regional Weather

Lat: 39.85N, Lon: 75.36W
Wx Zone: PAZ070
Warning FLW WEATHER ALERT - (More Info. Click Here) Warning
Feedback

Chester, PA Regional Weather

Expires:201906161100;;155265
ASUS41 KPHI 161012
RWRPHI

REGIONAL WEATHER ROUNDUP
NATIONAL WEATHER SERVICE MOUNT HOLLY NJ
600 AM EDT SUN JUN 16 2019

NOTE:  "FAIR" INDICATES FEW OR NO CLOUDS BELOW 12,000 FEET WITH NO
SIGNIFICANT WEATHER AND/OR OBSTRUCTIONS TO VISIBILITY.

 * = STATION DOES NOT REPORT PRECIPITATION (E.G. RAIN, SNOW, ETC.) 
        OR FOG.


PAZ043-044-047-054-055-060>062-066>071-161100-
EASTERN PENNSYLVANIA
  
CITY           SKY/WX    TMP DP  RH WIND       PRES   REMARKS
PHILADELPHIA   CLOUDY    69  58  67 S8        29.92F                  
NORTH PHILA    FAIR      71  57  61 SW9       29.93F                  
BLUE BELL*     FAIR      68  59  72 S6        29.92S                  
DOYLESTOWN     FAIR      68  57  68 S5        29.91F                  
QUAKERTOWN*    PTCLDY    68  59  73 CALM      29.93                   
PERKASIE*      FAIR      66  59  77 CALM      29.93S                  
POTTSTOWN      FAIR      66  58  75 CALM      29.93S                  
LANCASTER      FAIR      66  59  78 E6        29.89F                  
COATESVILLE    FAIR      66  57  72 CALM      29.93F                  
WEST CHESTER   FAIR      68  57  68 CALM      29.93S                  
READING        MOCLDY    69  58  67 SE3       29.89S                  
ALLENTOWN      LGT RAIN  66  60  81 CALM      29.90S                  
QN CITY/ALNTWN LGT RAIN N/A N/A N/A SW5       29.92R                  
MOUNT POCONO   CLOUDY    62  55  77 SW7       29.94S                  
HAZLETON       RAIN      61  55  82 CALM      29.95F                  
LEHIGHTON      DRIZZLE   61  61 100 CALM      29.92S                  
WILKES BARRE   LGT RAIN  63  60  90 E5        29.90F                  

$$

SKY/WX - Weather  TMP - Temperature  DP - Dew Point  RH - Relative Humidity
WIND - Wind Direction/Speed PRES - Barometric Pressure VSB - Visibility
WCI - Wind Chill Index E13G22 Wind - East Wind 13 mph/Gusts of 22 mph